www.pogodaiklimat.ru

Погода и климат >> Архив погоды >> Антарктида >> Neumayer


ПОГОДА в Neumayer

  • Прогноз погоды в Neumayer
  • Монитор погоды в Neumayer
  • Климат города

АРХИВ ПОГОДЫ в Neumayer

Время (UTC), дата Ветер
(напр.,м/с)
 
Видим.   Явления Облачность Т
(С)
Тd
(С)
f
(%)
Тe
(С)
Тes
(С)
Комфортность P
(гПа)
Po
(гПа)
Тmin
(С)
Tmax
(С)
R
(мм)
R24
(мм)
S
(см)
18 20.06 В 14 1000 м метель 10/10 1000 м
[St]
-17.9 -21.1 76 -33 -33 опасность
обморожения
999.8 994.4
21 20.06 В 13 4000 м сильный позёмок {метель} 10/10 1500 м
[St]
-17.7 -21.4 73 -32 -32 опасность
обморожения
1000.1 994.7
00 21.06 В 9 10 км позёмок {метель} 10/10 1500 м
[St]
-18.1 -23.0 65 -31 -31 опасность
обморожения
1000.3 994.9 -19.5 -16.7
03 21.06 В 8 н/о н/о -20.9 -26.1 63 -33 -33 опасность
обморожения
999.3 993.9
06 21.06 В 7 н/о н/о -22.4 -27.0 66 -35 -35 опасность
обморожения
997.1 991.7
09 21.06 В 8 50 км позёмок {метель} 1/0
[Ac As Ci fib]
-24.5 -30.0 60 -38 -38 опасность
обморожения
995.2 989.8
12 21.06 ЮВ 5 50 км {метель} 1/0
[Cs]
-30.1 -34.6 65 -42 -42 опасность
обморожения
993.5 988.1 -30.5 -17.7
15 21.06 Ю 4 50 км 1/0
[Ac As Cs]
-32.8 -37.4 63 -44 -44 опасность
обморожения
990.6 985.3
18 21.06 Ю 5 50 км 1/0
[Cs]
-33.3 -37.5 66 -47 -47 опасность
обморожения
988.1 982.7
21 21.06 Ю 4 50 км ясно -33.9 -37.7 68 -45 -45 опасность
обморожения
985.8 980.5
00 22.06 Ю 3 50 км ясно -34.7 -39.6 61 -45 -45 опасность
обморожения
983.7 978.3 -35.8 -28.1
03 22.06 ЮВ 4 н/о н/о -36.9 -40.9 66 -49 -49 опасность
обморожения
982.5 977.1
06 22.06 ЮВ 4 н/о н/о -33.2 -38.6 58 -45 -45 опасность
обморожения
981.5 976.1
09 22.06 Ю 3 50 км 1/0
[Cs]
-36.6 -41.6 60 -48 -48 опасность
обморожения
980.8 975.5
12 22.06 Ю 4 50 км 1/0
[Ci fib]
-36.5 -41.3 61 -49 -49 опасность
обморожения
980.2 974.8 -37.1 -33.0
15 22.06 Ю 4 50 км ясно -35.8 -41.2 57 -48 -48 опасность
обморожения
980.2 974.8
18 22.06 В 5 50 км ясно -37.5 -42.0 63 -52 -52 опасность
обморожения
981.5 976.1
21 22.06 СВ 3 50 км {метель} ясно -27.8 -32.2 66 -37 -37 опасность
обморожения
982.9 977.5
00 23.06 В 8 20 км ясно -24.8 -29.6 64 -38 -38 опасность
обморожения
984.1 978.7 -37.7 -24.3
03 23.06 В 9 н/о н/о -24.7 -29.4 65 -39 -39 опасность
обморожения
985.4 980.0
06 23.06 В 7 н/о н/о -27.2 -32.0 64 -41 -41 опасность
обморожения
986.6 981.3
09 23.06 Ю 3 50 км {метель} 1/0 2000 м
[Ac As]
-36.6 -40.5 67 -48 -48 опасность
обморожения
988.4 983.0
12 23.06 Ю 3 50 км 4/4 1500 м
[Sc Ci fib]
-37.1 -41.5 63 -48 -48 опасность
обморожения
989.1 983.8 -37.6 -24.0
15 23.06 ЮВ 4 50 км 3/3 1500 м
[Sc]
-38.7 -41.8 72 -51 -51 опасность
обморожения
989.3 983.9
18 23.06 ЮВ 4 50 км 1/1 1500 м
[Sc]
-39.0 -42.3 71 -52 -52 опасность
обморожения
988.9 983.5
21 23.06 ЮВ 3 20 км 5/5 600 м
[St]
-36.2 -40.8 62 -47 -47 опасность
обморожения
988.7 983.3
00 24.06 В 3 50 км 9/9 600 м
[Sc]
-29.3 -34.3 62 -39 -39 опасность
обморожения
987.6 982.2 -39.9 -29.2
03 24.06 В 4 н/о н/о -34.5 -39.0 63 -46 -46 опасность
обморожения
987.6 982.2
06 24.06 В 3 н/о н/о -27.5 -31.6 68 -37 -37 опасность
обморожения
986.9 981.5
09 24.06 В 6 20 км позёмок {метель} 10/10 300 м
[Frnb]
-25.2 -29.8 65 -38 -38 опасность
обморожения
986.7 981.3
12 24.06 В 6 20 км снежные зёрна {метель} туман 10/10 300 м
[Frnb]
-26.2 -30.3 68 -39 -39 опасность
обморожения
986.8 981.4 -35.0 -25.2
15 24.06 В 8 4000 м слабый снег {метель} туман 10/10 300 м
[Frnb]
-26.1 -29.5 73 -40 -40 опасность
обморожения
986.5 981.2
18 24.06 В 11 4000 м слабый снег {метель} туман 10/10 300 м
[Frnb]
-25.7 -29.0 74 -42 -42 опасность
обморожения
986.3 980.9
21 24.06 В 10 10 км слабый снег {метель} туман 10/10 300 м
[Frnb]
-25.6 -29.3 71 -41 -41 опасность
обморожения
986.5 981.1
00 25.06 В 10 1000 м слабый снег {метель} туман 10/10 300 м
[Frnb]
-25.8 -29.9 68 -41 -41 опасность
обморожения
986.8 981.4 -26.5 -25.2
03 25.06 В 10 н/о н/о -25.8 -29.5 71 -41 -41 опасность
обморожения
987.0 981.6
06 25.06 В 11 н/о н/о -25.9 -29.7 70 -42 -42 опасность
обморожения
986.8 981.5
09 25.06 В 8 20 км позёмок {метель} 10/9 300 м
[St]
-25.6 -30.2 65 -39 -39 опасность
обморожения
987.3 981.9
12 25.06 В 8 50 км позёмок {метель} 6/6 1500 м
[Sc]
-27.1 -31.6 65 -41 -41 опасность
обморожения
988.1 982.7 -27.2 -25.1
15 25.06 В 4 50 км {метель} 8/8 1000 м
[Sc]
-31.4 -35.5 67 -42 -42 опасность
обморожения
988.2 982.8
18 25.06 В 5 50 км {метель} 8/8 1000 м
[Sc]
-28.1 -34.1 56 -40 -40 опасность
обморожения
988.4 983.0
21 25.06 В 5 50 км 10/10 1000 м
[St]
-26.8 -32.2 60 -38 -38 опасность
обморожения
988.9 983.5
00 26.06 В 4 50 км 10/10 1000 м
[St]
-26.3 -31.3 63 -37 -37 опасность
обморожения
989.9 984.5 -33.1 -25.8
03 26.06 В 3 н/о н/о -26.5 -31.2 64 -36 -36 опасность
обморожения
990.8 985.4
06 26.06 В 4 н/о н/о -23.8 -29.1 62 -34 -34 опасность
обморожения
991.8 986.5
09 26.06 В 4 50 км снежные кристаллы 10/10 600 м
[Frnb]
-24.3 -28.9 66 -34 -34 опасность
обморожения
993.6 988.3
12 26.06 В 6 50 км {снег} 10/10 600 м
[St]
-23.6 -29.4 59 -35 -35 опасность
обморожения
994.4 989.1 -27.2 -23.5
15 26.06 В 4 20 км слабый снег 10/10 1000 м
[Frnb]
-22.5 -28.0 61 -32 -32 опасность
обморожения
995.6 990.2
18 26.06 В 4 20 км снежные кристаллы 10/10 100 м
[Frnb]
-22.2 -26.9 66 -32 -32 опасность
обморожения
996.4 991.1
21 26.06 В 5 20 км слабый снег 10/9 600 м
[Frnb]
-21.9 -25.5 73 -32 -32 опасность
обморожения
997.0 991.6
00 27.06 В 5 50 км {снег} 10/10 300 м
[St]
-21.4 -25.6 69 -32 -32 опасность
обморожения
996.9 991.5 -23.8 -21.3
03 27.06 В 5 н/о н/о -21.0 -26.2 63 -31 -31 опасность
обморожения
997.4 992.1
06 27.06 В 5 н/о н/о -20.9 -26.5 61 -31 -31 опасность
обморожения
997.4 992.0
09 27.06 В 4 50 км 10/10 1500 м
[St]
-20.9 -26.6 60 -30 -30 997.2 991.9
12 27.06 ЮВ 4 50 км 10/10 1500 м
[St]
-22.5 -26.5 70 -32 -32 опасность
обморожения
996.7 991.4 -22.5 -20.6
15 27.06 ЮВ 3 50 км 9/9 1000 м
[Sc]
-23.8 -28.0 68 -31 -31 опасность
обморожения
996.4 991.0

 

Местоположение метеостанции Neumayer (Антарктида): широта -70.66 долгота -8.25 высота над уровнем моря 50 м.

В архиве по умолчанию представлена погода в Neumayer за последнюю неделю. Архивные данные за месяц целиком и за предыдущие месяцы, начиная с января 2011 года, Вы можете получить, выбрав интересующий диапазон дат из раскрывающегося списка и нажав кнопку "Ввод!".

Внимание! Время в таблицах - всемирное. Для получения местного времени необходимо прибавить поправку, которая в Neumayer равна 0 ч.

Смотрите также архив погоды в соседних городах и на ближайших метеорологических станциях:

Погода в S.a.n.a.e. aws (Антарктида) (227 км)
Погода в Nordenskiold Base (Антарктида) (320 км)
Погода в Troll (Антарктида) (406 км)
Погода в Kohnen Ep9 (Антарктида) (552 км)
Погода в Maitri (Антарктида) (732 км)
Погода в Novolazarevskaja (Антарктида) (734 км)
Погода в Halley (Антарктида) (797 км)
Погода в Base Belgrano Ii (Антарктида) (1110 км)
Погода в Relay Station (Антарктида) (1713 км)
Погода в Butler Island (Антарктида) (1789 км)

Пояснения к столбцам:

Ветер - указаны скорость ветра в м/с - средняя за 10 мин, порывы в срок и между сроками (в фигурных скобках) и направление, откуда дует ветер: С - северный, СВ - северо-восточный, В - восточный, ЮВ - юго-восточный, Ю - южный, ЮЗ - юго-западный, З - западный, СЗ - северо-западный.
Видимость - горизонтальная дальность видимости в метрах или километрах. При видимости от 1 до 10 км при отсутствии осадков обычно наблюдается дымка, при ухудшении видимости до 1 км и менее - туман. В сухую погоду видимость может ухудшаться дымом, пылью или мглою.
Явления - указаны атмосферные явления, наблюдавшиеся в срок или в последний час перед сроком; фигурными скобками обозначены явления, наблюдавшиеся между сроками (за 1-3 часа до срока); квадратными скобками обозначены град или гололедные отложения с указанием их диаметра в мм.
Облачность - указаны через наклонную черту общая и нижняя облачность в баллах и высота нижней границы облаков в метрах; квадратными скобками обозначены формы облаков: Ci - перистые, Cs - перисто-слоистые, Cc - перисто-кучевые, Ac - высококучевые, As - высокослоистые, Sc - слоисто-кучевые, Ns - слоисто-дождевые, Cu - кучевые, Cb - кучево-дождевые. Подробнее классификацию облаков см. в Атласе облаков (PDF).
T - Температура воздуха - температура, измеренная на высоте 2 м над землей.
Td - Температура точки росы - температура, при понижении до которой содержащийся в воздухе водяной пар достигнет насыщения.
f - Относительная влажность воздуха - влажноcть воздуха, измеренная на высоте 2 м над землей.
Te - Эффективная температура - температура, которую ощущает одетый по сезону человек в тени. Характеристика душности погоды. При расчете учитывается влияние влажности воздуха и скорости ветра на теплоощущения человека.
Tes - Эффективная температура на солнце - температура, которую ощущает человек, с поправкой на солнечный нагрев. Характеристика знойности погоды. Зависит от высоты солнца над горизонтом, облачности и скорости ветра. Ночью, в пасмурную погоду, а также при ветре 12 м/с и более поправка равна нулю.
P - Атмосферное давление - приведенное к уровню моря атмосферное давление.
Po - Атмосферное давление - измеренное на уровне метеостанции атмосферное давление.
Tmin - Минимальная температура - минимум температуры воздуха на высоте 2 м над землей.
Tmax - Максимальная температура - максимум температуры воздуха на высоте 2 м над землей.
R - Количество осадков - Количество выпавших осадков за период времени, мм. При наведении курсора мыши на число - период времени, за который выпало указанное количество осадков.
R24 - Количество осадков - Количество выпавших осадков за 24 часа, мм.
S - Снежный покров - Высота снежного покрова, см. При наведении курсора мыши на число - состояние снежного покрова и степень покрытия местности в баллах.